Eastsound, WA
on Thursday, February 7, 2013

Thursday
Previous Day Next Day
Daily Summary
 ActualAverage (KBLI)Record (KBLI)
Temperature
Mean Temperature °F 40°F  
Max Temperature 48°F 48°F 60°F (1954)
Min Temperature 32°F 33°F 20°F (1989)
Degree Days
Heating Degree Days 25 25  
Month to date heating degree days 175  
Cooling Degree Days 0 0  
Month to date cooling degree days 0  
Year to date cooling degree days 0  
Moisture
Dew Point 36°F   
Average Humidity 78    
Maximum Humidity 100    
Minimum Humidity 57    
Precipitation
Precipitation 0.00 in 0.12 in 2.39 in (1955)
Month to date precipitation 0.82  
Year to date precipitation 5.49  
Wind
Wind Speed 8 mph   
Max Wind Speed 18 mph   
Max Gust Speed 31 mph   
Visibility 10 miles   
Events Rain   

Key: T is trace of precipitation, MM is missing value
Source: NWS Daily Summary
Time(PST)TemperatureDew PointHumidity Pressure Visibility Wind DirectionWind SpeedGust SpeedPrecipitationEvents Conditions
12:15 AM 48.2°F 35.6°F 62% 29.71 in 10.0 miles SSE 9.2 mph 16.1 mph N/A   Clear
12:35 AM 48.2°F 37.4°F 66% 29.71 in 10.0 miles SSE 10.4 mph 21.9 mph N/A   Partly Cloudy
12:55 AM 48.2°F 37.4°F 66% 29.71 in 10.0 miles SSE 8.1 mph 25.3 mph N/A   Partly Cloudy
1:15 AM 48.2°F 37.4°F 66% 29.71 in 10.0 miles SSE 12.7 mph 23.0 mph N/A   Mostly Cloudy
1:35 AM 48.2°F 37.4°F 66% 29.71 in 10.0 miles SE 18.4 mph 28.8 mph N/A   Overcast
1:55 AM 48.2°F 37.4°F 66% 29.71 in 10.0 miles SSE 16.1 mph 26.5 mph N/A   Mostly Cloudy
2:15 AM 46.4°F 37.4°F 71% 29.71 in 10.0 miles SSE 17.3 mph 31.1 mph N/A   Clear
2:35 AM 46.4°F 37.4°F 71% 29.72 in 10.0 miles SSE 12.7 mph 29.9 mph N/A Rain Light Rain
2:55 AM 46.4°F 37.4°F 71% 29.73 in 10.0 miles South 8.1 mph - N/A   Clear
3:15 AM 44.6°F 39.2°F 81% 29.73 in 10.0 miles South 12.7 mph 24.2 mph N/A   Scattered Clouds
3:35 AM 44.6°F 37.4°F 76% 29.73 in 10.0 miles South 8.1 mph 19.6 mph N/A   Partly Cloudy
3:55 AM 44.6°F 37.4°F 76% 29.74 in 10.0 miles South 13.8 mph 24.2 mph N/A   Partly Cloudy
4:15 AM 44.6°F 37.4°F 76% 29.77 in 10.0 miles South 10.4 mph 27.6 mph N/A   Mostly Cloudy
4:35 AM 44.6°F 37.4°F 76% 29.79 in 10.0 miles South 13.8 mph 29.9 mph N/A   Overcast
4:55 AM 44.6°F 37.4°F 76% 29.81 in 10.0 miles South 12.7 mph 24.2 mph N/A   Overcast
5:15 AM 44.6°F 37.4°F 76% 29.83 in 10.0 miles South 11.5 mph 18.4 mph N/A   Overcast
5:35 AM 44.6°F 37.4°F 76% 29.85 in 10.0 miles South 11.5 mph 23.0 mph N/A   Overcast
5:55 AM 44.6°F 37.4°F 76% 29.86 in 10.0 miles SW 6.9 mph - N/A   Overcast
6:35 AM 44.6°F 37.4°F 76% 29.89 in 10.0 miles Calm Calm - N/A   Overcast
6:55 AM 42.8°F 37.4°F 81% 29.89 in 10.0 miles South 3.5 mph - N/A   Mostly Cloudy
7:15 AM 42.8°F 37.4°F 81% 29.90 in 10.0 miles South 5.8 mph - N/A   Partly Cloudy
7:35 AM 41.0°F 37.4°F 87% 29.91 in 10.0 miles South 4.6 mph - N/A   Partly Cloudy
7:55 AM 41.0°F 37.4°F 87% 29.92 in 10.0 miles South 5.8 mph - N/A   Clear
8:15 AM 41.0°F 35.6°F 81% 29.94 in 10.0 miles South 8.1 mph - N/A   Partly Cloudy
8:35 AM 41.0°F 37.4°F 87% 29.95 in 10.0 miles South 5.8 mph - N/A   Partly Cloudy
8:55 AM 41.0°F 37.4°F 87% 29.96 in 10.0 miles South 5.8 mph - N/A   Scattered Clouds
9:15 AM 42.8°F 37.4°F 81% 29.97 in 10.0 miles South 5.8 mph - N/A   Overcast
9:35 AM 42.8°F 37.4°F 81% 29.97 in 10.0 miles South 6.9 mph - N/A   Overcast
9:55 AM 42.8°F 37.4°F 81% 29.98 in 10.0 miles SSW 6.9 mph - N/A   Overcast
10:15 AM 44.6°F 37.4°F 76% 29.99 in 10.0 miles SSW 8.1 mph - N/A   Mostly Cloudy
10:35 AM 42.8°F 37.4°F 81% 29.99 in 10.0 miles South 8.1 mph - N/A   Clear
10:55 AM 44.6°F 37.4°F 76% 30.00 in 10.0 miles SSW 11.5 mph - N/A   Partly Cloudy
11:15 AM 44.6°F 37.4°F 76% 30.01 in 10.0 miles SSW 10.4 mph - N/A   Scattered Clouds
11:35 AM 44.6°F 39.2°F 81% 30.02 in 10.0 miles SSW 9.2 mph - N/A   Scattered Clouds
11:55 AM 44.6°F 37.4°F 76% 30.02 in 10.0 miles South 9.2 mph - N/A   Mostly Cloudy
12:15 PM 46.4°F 35.6°F 66% 30.02 in 10.0 miles South 5.8 mph - N/A   Mostly Cloudy
12:35 PM 46.4°F 35.6°F 66% 30.02 in 10.0 miles South 9.2 mph - N/A   Mostly Cloudy
12:55 PM 46.4°F 37.4°F 71% 30.02 in 10.0 miles SSW 10.4 mph - N/A   Mostly Cloudy
1:15 PM 46.4°F 37.4°F 71% 30.02 in 10.0 miles SSW 9.2 mph - N/A   Partly Cloudy
1:35 PM 46.4°F 35.6°F 66% 30.02 in 10.0 miles SSW 5.8 mph - N/A   Clear
1:55 PM 46.4°F 35.6°F 66% 30.02 in 10.0 miles South 3.5 mph - N/A   Clear
2:15 PM 46.4°F 35.6°F 66% 30.02 in 10.0 miles Calm Calm - N/A   Partly Cloudy
2:35 PM 46.4°F 33.8°F 62% 30.03 in 10.0 miles East 5.8 mph - N/A   Clear
2:55 PM 46.4°F 35.6°F 66% 30.03 in 10.0 miles NE 3.5 mph - N/A   Clear
3:15 PM 46.4°F 33.8°F 62% 30.04 in 10.0 miles ENE 4.6 mph - N/A   Clear
3:35 PM 46.4°F 32.0°F 57% 30.04 in 10.0 miles Calm Calm - N/A   Clear
3:55 PM 46.4°F 32.0°F 57% 30.04 in 10.0 miles Calm Calm - N/A   Clear
4:15 PM 46.4°F 32.0°F 57% 30.05 in 10.0 miles Calm Calm - N/A   Clear
4:35 PM 44.6°F 32.0°F 61% 30.05 in 10.0 miles Calm Calm - N/A   Clear
4:55 PM 41.0°F 35.6°F 81% 30.06 in 10.0 miles Calm Calm - N/A   Clear
5:15 PM 41.0°F 35.6°F 81% 30.07 in 10.0 miles Calm Calm - N/A   Partly Cloudy
5:35 PM 39.2°F 35.6°F 87% 30.07 in 9.0 miles Calm Calm - N/A   Clear
5:55 PM 37.4°F 33.8°F 87% 30.08 in 10.0 miles Calm Calm - N/A   Clear
6:15 PM 37.4°F 33.8°F 87% 30.09 in 10.0 miles Calm Calm - N/A   Clear
6:35 PM 37.4°F 32.0°F 81% 30.09 in 10.0 miles Calm Calm - N/A   Clear
6:55 PM 37.4°F 32.0°F 81% 30.10 in 10.0 miles Calm Calm - N/A   Clear
7:15 PM 35.6°F 32.0°F 87% 30.10 in 10.0 miles Calm Calm - N/A   Clear
7:35 PM 35.6°F 32.0°F 87% 30.11 in 10.0 miles North - - N/A   Clear
7:55 PM 35.6°F 32.0°F 87% 30.12 in 10.0 miles Calm Calm - N/A   Clear
8:15 PM 35.6°F 32.0°F 87% 30.12 in 10.0 miles Calm Calm - N/A   Clear
8:55 PM 33.8°F 32.0°F 93% 30.14 in 10.0 miles Calm Calm - N/A   Clear
9:15 PM 33.8°F 32.0°F 93% 30.15 in 10.0 miles Calm Calm - N/A   Clear
9:35 PM 32.0°F 32.0°F 100% 30.15 in 10.0 miles Calm Calm - N/A   Clear
9:55 PM 33.8°F 33.8°F 100% 30.16 in 10.0 miles Calm Calm - N/A   Clear
10:15 PM 33.8°F 32.0°F 93% 30.17 in 10.0 miles Calm Calm - N/A   Clear
10:35 PM 33.8°F 33.8°F 100% 30.17 in 10.0 miles Calm Calm - N/A   Partly Cloudy
10:55 PM 35.6°F 33.8°F 93% 30.17 in 10.0 miles Calm Calm - N/A   Partly Cloudy
11:15 PM 33.8°F 32.0°F 93% 30.18 in 10.0 miles Calm Calm - N/A   Clear
11:35 PM 35.6°F 35.6°F 100% 30.18 in 10.0 miles Calm Calm - N/A   Clear
11:55 PM 35.6°F 33.8°F 93% 30.19 in 10.0 miles Calm Calm - N/A   Partly Cloudy
Moon Phase
Feb. 07 Feb. 10 Feb. 17 Feb. 25 Mar. 04
Sunrise:07:31 AM (PST) Moon Rise:05:24 AM (PST)2/7
Sunset:05:20 PM (PST) Moon Set:02:44 PM (PST)2/7

Copyright © 2014 The Weather Underground, Inc.